[[{"header":{"parameterUnit":"m.s-1","parameterCategory":2,"la1":30.2991,"la2":30.254,"lo1":-89.0895,"lo2":-89.0444,"dy":0.0017,"dx":0.0017,"nx":28,"ny":28,"refTime":"2025-02-02T09:00:00:Z","depth":"0","parameterNumber":2,"parameterNumberName":"U-component_of_CURRENTS"},"data":[0,0,0,0,0,0,0,0,0,0,0,0,0,0,0,0,0,0,0,0,0,0,0,0,0,0,0,0,0,0,0,0,0,0,0,0,0,0,0,0,0,0,0,0,0,0,0,0,0,0,0,0,0,0,0,0,0,0,0.22,0.2201,0,0.2247,0.2247,0.2248,0.2299,0.23,0.2301,0.2302,0.2366,0.2367,0.2368,0,0,0,0,0,0,0,0,0,0,0,0,0,0.217,0.217,0.22,0.2201,0.2202,0.2247,0.2247,0.2248,0.2299,0.23,0.2301,0.2302,0.2366,0.2367,0.2368,0,0,0,0,0,0,0,0,0,0,0,0,0,0.2196,0.217,0.22,0.2233,0.2236,0.2246,0.2247,0.2248,0.2299,0.23,0.2301,0.2303,0.2366,0.2367,0.2369,0.2354,0,0,0.2373,0.2374,0,0,0,0,0,0,0,0,0.2194,0.2197,0.2228,0.2231,0.2235,0.2269,0.226,0.2284,0.2299,0.2275,0.2302,0.2303,0.2335,0.2339,0.2344,0.2357,0.236,0.2373,0.2374,0.2375,0.2375,0,0,0,0,0,0,0,0.2192,0.2195,0.2218,0.2228,0.2232,0.225,0.2255,0.2265,0.2298,0.2277,0.2281,0.2286,0.2337,0.2343,0.2346,0.2361,0.2373,0.2375,0.2375,0.2376,0.2363,0.2362,0,0,0,0,0,0,0.2185,0.2193,0.2217,0.222,0.2217,0.2249,0.2255,0.2256,0.2297,0.2305,0.2285,0.2289,0.234,0.2344,0.2349,0.2332,0.2375,0.2376,0.2377,0.2364,0.2363,0.2361,0,0,0,0,0,0,0.2184,0.2187,0.2215,0.2208,0.2213,0.2249,0.225,0.2257,0.2261,0.2303,0.2311,0.2283,0.2341,0.2347,0.2349,0.2335,0.2377,0.2378,0.2365,0.2364,0.2362,0.23,0,0,0,0,0,0,0.2183,0.2186,0.2177,0.2207,0.2213,0.2213,0.2249,0.2257,0.2263,0.2268,0.2304,0.2312,0.2342,0.2346,0.235,0.2338,0.2379,0.2367,0.2365,0.2362,0.2304,0.2297,0.229,0,0,0,0,0,0.2182,0.2162,0.2177,0.2179,0.2203,0.2212,0.2216,0.2246,0.2262,0.2256,0.2278,0.2311,0.2335,0.2346,0.2351,0.2339,0.2368,0.2365,0.2363,0.2307,0.2298,0.2291,0,0,0,0,0,0,0.2132,0.2167,0.2183,0.2172,0.2189,0.2221,0.2214,0.2235,0.2248,0.2251,0.2293,0.2301,0.2304,0.232,0.2332,0.2327,0.2357,0.2355,0.2313,0.2305,0.2298,0.2288,0.2381,0,0,0,0,0,0.2119,0.2122,0.2152,0.2141,0.2147,0.2178,0.2184,0.2204,0.2223,0.223,0.2256,0.2277,0.2294,0.2298,0.2318,0.2306,0.2326,0.2301,0.2294,0.2288,0.2282,0.2297,0.2292,0.2352,0.2352,0.2352,0,0,0.2094,0.2115,0.2114,0.2133,0.2147,0.2148,0.2184,0.2186,0.2186,0.2234,0.2232,0.2257,0.2287,0.2284,0.2285,0.2296,0.2279,0.2285,0.228,0.2277,0.2294,0.2288,0.2283,0.235,0.2351,0.2351,0,0,0.2057,0.2066,0.2062,0.2074,0.2097,0.2114,0.2111,0.2138,0.2148,0.2147,0.2186,0.2195,0.2215,0.2234,0.2247,0.2208,0.2248,0.2215,0.2167,0.2181,0.2177,0.2173,0.2181,0.2179,0.2204,0.2204,0.2204,0,0.2027,0.2032,0.2058,0.206,0.2064,0.2096,0.2088,0.2096,0.2119,0.2117,0.2138,0.2164,0.2192,0.219,0.2182,0.2194,0.2207,0.2198,0.2173,0.217,0.2167,0.2177,0.2175,0.2201,0.2201,0.2201,0.2202,0,0.1999,0.1999,0.1991,0.2011,0.2012,0.2007,0.2028,0.2022,0.2037,0.2052,0.2052,0.2087,0.2103,0.2112,0.2138,0.2127,0.2145,0.217,0.2196,0.2158,0.217,0.2169,0.2196,0.2197,0.2198,0.2199,0,0,0.1947,0.197,0.1968,0.1969,0.1988,0.1984,0.1971,0.1969,0.1953,0.1974,0.1959,0.1989,0.2012,0.2027,0.206,0.2067,0.2063,0.2104,0.2106,0.2114,0.2088,0.2046,0.2041,0.2086,0.2086,0.2086,0.2101,0,0.192,0.1915,0.1933,0.1913,0.1909,0.1924,0.1911,0.1909,0.191,0.1898,0.1927,0.1934,0.1979,0.1988,0.2001,0.2051,0.2059,0.2056,0.2122,0.2123,0.2093,0.2038,0.1962,0.1965,0.2101,0.2101,0.2101,0,0.1892,0.1895,0.1877,0.1874,0.1871,0.1858,0.1832,0.1825,0.1815,0.1821,0.1825,0.1854,0.187,0.1918,0.1971,0.1968,0.202,0.2058,0.206,0.2042,0.2079,0.2027,0.1959,0.1821,0.21,0.21,0.21,0,0.1854,0.1851,0.1836,0.1836,0.1836,0.1817,0.1808,0.1794,0.1776,0.1769,0.1757,0.1787,0.18,0.1862,0.194,0.1959,0.1997,0.2037,0.2045,0.2044,0.2001,0.1995,0.181,0.2073,0.2073,0.2073,0.2073,0,0.1825,0.1808,0.1815,0.1805,0.1772,0.1781,0.1735,0.1732,0.1713,0.1684,0.1717,0.1703,0.1788,0.1821,0.1906,0.1957,0.1974,0.202,0.2037,0.1975,0.1967,0.1866,0.179,0.2074,0.2073,0.2073,0.2073,0,0.1787,0.1796,0.1774,0.1764,0.1755,0.1727,0.1695,0.1662,0.1656,0.1616,0.1615,0.1635,0.1676,0.1754,0.1847,0.1899,0.1887,0.1989,0.1903,0.1908,0.1776,0.17,0.1563,0.1561,0.1987,0.1986,0.1985,0,0.1769,0.1758,0.1739,0.1719,0.171,0.1673,0.1647,0.1636,0.1604,0.1574,0.1556,0.157,0.158,0.1675,0.1774,0.1878,0.1827,0.1857,0.1875,0.1725,0.1655,0.1624,0.1632,0.1799,0.1797,0.1795,0.1793,0,0.1729,0.1725,0.1709,0.1676,0.1643,0.1605,0.1567,0.154,0.1521,0.1492,0.1463,0.1463,0.1531,0.1571,0.1681,0.1757,0.1704,0.1819,0.1686,0.1488,0.142,0.1442,0.1831,0.1776,0.1778,0.1779,0.178,0.178,0.1695,0.1677,0.1662,0.1626,0.1588,0.1544,0.1504,0.1472,0.1428,0.1377,0.1392,0.1378,0.139,0.153,0.1573,0.1534,0.1598,0.15,0.1424,0.1411,0.1371,0.1708,0.1658,0.1659,0.166,0.166,0.1661,0,0.1659,0.1646,0.1613,0.1571,0.1521,0.1513,0.1456,0.1418,0.1366,0.133,0.1302,0.1273,0.1247,0.1269,0.1225,0.1135,0.1193,0.1067,0.0985,0.1027,0.1333,0.1285,0.1122,0.1122,0.1122,0.1123,0.1123,0.1123,0.1637,0.1608,0.1599,0.1521,0.1486,0.1421,0.1386,0.1337,0.1307,0.1229,0.1191,0.1179,0.1077,0.0805,0.0646,0.0665,0.0612,0.0565,0.0602,0.0747,0.0782,0.0815,0.075,0.0478,0.0477,0.0338,0.0335,0.0333]},{"header":{"parameterUnit":"m.s-1","parameterCategory":2,"la1":30.2991,"la2":30.254,"lo1":-89.0895,"lo2":-89.0444,"dy":0.0017,"dx":0.0017,"nx":28,"ny":28,"refTime":"2025-02-02T09:00:00:Z","depth":"0","parameterNumber":3,"parameterNumberName":"V-component_of_CURRENTS"},"data":[0,0,0,0,0,0,0,0,0,0,0,0,0,0,0,0,0,0,0,0,0,0,0,0,0,0,0,0,0,0,0,0,0,0,0,0,0,0,0,0,0,0,0,0,0,0,0,0,0,0,0,0,0,0,0,0,0,0,-0.0286,-0.0286,0,-0.0299,-0.0299,-0.03,-0.0315,-0.0315,-0.0316,-0.0316,-0.0312,-0.0312,-0.0311,0,0,0,0,0,0,0,0,0,0,0,0,0,-0.0249,-0.025,-0.0286,-0.0286,-0.0286,-0.0299,-0.0299,-0.03,-0.0315,-0.0315,-0.0316,-0.0316,-0.0312,-0.0312,-0.0311,0,0,0,0,0,0,0,0,0,0,0,0,0,-0.0263,-0.025,-0.0286,-0.0296,-0.0297,-0.0299,-0.0299,-0.03,-0.0315,-0.0315,-0.0316,-0.0316,-0.0312,-0.0312,-0.0311,-0.0298,0,0,-0.0309,-0.0309,0,0,0,0,0,0,0,0,-0.0262,-0.0265,-0.0294,-0.0295,-0.0297,-0.0307,-0.0285,-0.0299,-0.0315,-0.0307,-0.0316,-0.0316,-0.0309,-0.0308,-0.0309,-0.0298,-0.0298,-0.0309,-0.0309,-0.0309,-0.0308,0,0,0,0,0,0,0,-0.0262,-0.0264,-0.029,-0.0295,-0.0296,-0.0292,-0.0294,-0.0288,-0.0304,-0.0308,-0.0309,-0.0312,-0.0309,-0.031,-0.0309,-0.0298,-0.0309,-0.0309,-0.0308,-0.0308,-0.028,-0.0279,0,0,0,0,0,0,-0.0262,-0.0263,-0.029,-0.0291,-0.0281,-0.0292,-0.0295,-0.0302,-0.0305,-0.0306,-0.0312,-0.0313,-0.031,-0.031,-0.0309,-0.0294,-0.0309,-0.0308,-0.0308,-0.028,-0.0279,-0.0279,0,0,0,0,0,0,-0.0262,-0.0265,-0.0289,-0.0278,-0.0281,-0.0293,-0.03,-0.0302,-0.0305,-0.0308,-0.0309,-0.0312,-0.0311,-0.031,-0.0304,-0.0294,-0.0308,-0.0307,-0.028,-0.028,-0.0279,-0.0265,0,0,0,0,0,0,-0.026,-0.0264,-0.0266,-0.0278,-0.0281,-0.0293,-0.03,-0.0302,-0.0306,-0.0307,-0.0308,-0.0309,-0.0311,-0.0304,-0.0303,-0.0294,-0.0307,-0.0281,-0.028,-0.0279,-0.0266,-0.0264,-0.0262,0,0,0,0,0,-0.0259,-0.0263,-0.0266,-0.0269,-0.0285,-0.0293,-0.0294,-0.0303,-0.0305,-0.0306,-0.0306,-0.0309,-0.0298,-0.0304,-0.0302,-0.0292,-0.0281,-0.028,-0.0279,-0.0266,-0.0264,-0.0262,0,0,0,0,0,0,-0.0244,-0.0265,-0.0269,-0.0278,-0.0285,-0.0296,-0.0297,-0.0301,-0.0301,-0.0302,-0.0303,-0.0303,-0.0294,-0.0294,-0.03,-0.0282,-0.029,-0.0289,-0.0281,-0.0278,-0.0277,-0.0267,-0.0306,0,0,0,0,0,-0.0242,-0.0253,-0.0267,-0.0272,-0.0276,-0.0285,-0.0287,-0.0294,-0.0297,-0.0298,-0.0298,-0.0295,-0.0288,-0.0285,-0.0282,-0.027,-0.0249,-0.0263,-0.0261,-0.0259,-0.025,-0.0203,-0.0195,-0.0276,-0.0276,-0.0276,0,0,-0.0236,-0.0249,-0.0254,-0.0269,-0.0275,-0.0282,-0.0287,-0.0293,-0.0294,-0.0296,-0.0294,-0.0289,-0.0284,-0.0274,-0.027,-0.0273,-0.0227,-0.0258,-0.0257,-0.0249,-0.0201,-0.0193,-0.0186,-0.0275,-0.0275,-0.0276,0,0,-0.0234,-0.0242,-0.0253,-0.026,-0.0273,-0.0277,-0.0278,-0.0288,-0.0288,-0.0284,-0.0284,-0.0269,-0.0268,-0.0256,-0.025,-0.0233,-0.0219,-0.0237,-0.0218,-0.0172,-0.0165,-0.0158,-0.0127,-0.0118,-0.0235,-0.0235,-0.0235,0,-0.0225,-0.0244,-0.0254,-0.0266,-0.027,-0.0275,-0.0281,-0.028,-0.0284,-0.0274,-0.0283,-0.0255,-0.0255,-0.0226,-0.0225,-0.0227,-0.0204,-0.0228,-0.0168,-0.0161,-0.0154,-0.0124,-0.0114,-0.0234,-0.0234,-0.0234,-0.0234,0,-0.0235,-0.0247,-0.0252,-0.027,-0.0272,-0.0278,-0.0281,-0.0276,-0.0273,-0.0267,-0.024,-0.0232,-0.0212,-0.0211,-0.0215,-0.0169,-0.0169,-0.0172,-0.0172,-0.0145,-0.0116,-0.0105,-0.0233,-0.0233,-0.0233,-0.0234,0,0,-0.0225,-0.0255,-0.0257,-0.0264,-0.0276,-0.0278,-0.0271,-0.0261,-0.0244,-0.0237,-0.0206,-0.0193,-0.0179,-0.0171,-0.0165,-0.0129,-0.0071,-0.0132,-0.013,-0.0099,0.0026,0.0025,0.0036,-0.006,-0.0058,-0.0056,0.0025,0,-0.023,-0.0256,-0.0264,-0.0272,-0.0284,-0.0279,-0.0268,-0.0255,-0.0238,-0.0207,-0.018,-0.0153,-0.0166,-0.015,-0.0115,-0.0078,-0.0042,-0.0093,-0.0008,-0.0005,-0.0006,0.005,0.0116,0.0195,0.0036,0.0037,0.0039,0,-0.024,-0.0256,-0.0275,-0.0276,-0.0277,-0.0276,-0.025,-0.024,-0.0196,-0.018,-0.0141,-0.012,-0.0067,-0.0082,0.0005,-0.0027,0.0001,0.0027,0.003,0.0035,0.0015,0.0143,0.022,0.0256,0.0055,0.0053,0.0052,0,-0.024,-0.0258,-0.0273,-0.0278,-0.0281,-0.0273,-0.0263,-0.023,-0.0207,-0.0155,-0.0125,-0.0067,-0.0027,0.0023,0.0067,0.0044,0.0166,0.0141,0.0167,0.0167,0.0243,0.0246,0.0371,0.021,0.0209,0.0209,0.0209,0,-0.0251,-0.0259,-0.0274,-0.0284,-0.0277,-0.0273,-0.0247,-0.0229,-0.0182,-0.014,-0.0107,-0.0056,0.0004,0.0072,0.01,0.0175,0.0196,0.019,0.02,0.0248,0.025,0.0298,0.0296,0.0212,0.0211,0.0211,0.021,0,-0.026,-0.0273,-0.0285,-0.0288,-0.0284,-0.0278,-0.0246,-0.0219,-0.0181,-0.0122,-0.0101,-0.0026,0.0067,0.0125,0.0219,0.0223,0.0333,0.0303,0.0345,0.0358,0.0392,0.0387,0.0498,0.0577,0.0349,0.035,0.035,0,-0.0276,-0.0286,-0.0291,-0.0287,-0.0291,-0.0277,-0.0259,-0.0225,-0.0192,-0.0101,-0.0067,0.0036,0.0114,0.0247,0.0312,0.0387,0.0398,0.0448,0.0411,0.0426,0.0428,0.0404,0.0461,0.0519,0.0521,0.0523,0.0524,0,-0.0295,-0.0294,-0.03,-0.0293,-0.0282,-0.0264,-0.0236,-0.021,-0.0154,-0.0099,-0.0007,0.0066,0.0212,0.0342,0.043,0.0467,0.0506,0.0478,0.051,0.0591,0.0563,0.0632,0.0412,0.0538,0.0536,0.0535,0.0535,0.0534,-0.03,-0.0302,-0.0299,-0.0288,-0.0274,-0.0244,-0.0216,-0.0176,-0.0118,-0.0017,0.0033,0.0158,0.0332,0.0484,0.053,0.065,0.0613,0.0662,0.0661,0.0638,0.0704,0.0495,0.0611,0.061,0.0609,0.0608,0.0608,0,-0.0296,-0.029,-0.0287,-0.0267,-0.0243,-0.0237,-0.019,-0.0147,-0.0074,0.0018,0.0107,0.0305,0.049,0.0628,0.0797,0.0832,0.0858,0.0846,0.0857,0.0914,0.0762,0.0759,0.0894,0.0894,0.0894,0.0894,0.0894,0.0894,-0.0289,-0.0279,-0.0274,-0.0237,-0.0219,-0.0168,-0.0136,-0.0074,-0.0003,0.0142,0.0258,0.0344,0.053,0.0767,0.0942,0.0974,0.1039,0.1012,0.1038,0.0938,0.092,0.0904,0.0904,0.1066,0.1067,0.1236,0.1237,0.1238]}],[{"header":{"parameterUnit":"m.s-1","parameterCategory":2,"la1":30.2991,"la2":30.254,"lo1":-89.0895,"lo2":-89.0444,"dy":0.0017,"dx":0.0017,"nx":28,"ny":28,"refTime":"2025-02-02T09:00:00:Z","depth":"2","parameterNumber":2,"parameterNumberName":"U-component_of_CURRENTS"},"data":[0,0,0,0,0,0,0,0,0,0,0,0,0,0,0,0,0,0,0,0,0,0,0,0,0,0,0,0,0,0,0,0,0,0,0,0,0,0,0,0,0,0,0,0,0,0,0,0,0,0,0,0,0,0,0,0,0,0,0.0177,0.0177,0,0.0188,0.0188,0.0189,0.0236,0.0237,0.0238,0.0239,0.03,0.03,0.0301,0,0,0,0,0,0,0,0,0,0,0,0,0,0.018,0.018,0.0177,0.0177,0.0177,0.0188,0.0189,0.0189,0.0235,0.0237,0.0238,0.0239,0.03,0.03,0.0301,0,0,0,0,0,0,0,0,0,0,0,0,0,0.0184,0.018,0.0176,0.0202,0.0204,0.0188,0.0189,0.0189,0.0235,0.0237,0.0238,0.024,0.0299,0.03,0.0301,0.0274,0,0,0.0304,0.0304,0,0,0,0,0,0,0,0,0.0184,0.0184,0.0198,0.02,0.0202,0.0212,0.0212,0.022,0.0235,0.0223,0.0239,0.0241,0.0274,0.0277,0.0275,0.0277,0.028,0.0304,0.0305,0.0305,0.0305,0,0,0,0,0,0,0,0.0183,0.0183,0.0181,0.0198,0.0201,0.0207,0.021,0.0214,0.024,0.0224,0.0228,0.0229,0.0276,0.0274,0.0277,0.0281,0.0304,0.0305,0.0305,0.0306,0.0344,0.0344,0,0,0,0,0,0,0.0181,0.0183,0.0181,0.0182,0.0197,0.0206,0.0209,0.0207,0.0239,0.0245,0.0227,0.0231,0.0271,0.0276,0.0279,0.0317,0.0305,0.0306,0.0306,0.0343,0.0344,0.0344,0,0,0,0,0,0,0.0181,0.018,0.018,0.0183,0.0183,0.0204,0.0202,0.0207,0.0226,0.0241,0.0248,0.0245,0.0273,0.0278,0.0298,0.0317,0.0306,0.0307,0.0343,0.0344,0.0344,0.0349,0,0,0,0,0,0,0.0181,0.018,0.0183,0.0182,0.0183,0.0179,0.0201,0.0206,0.0223,0.0228,0.0258,0.0264,0.0275,0.0296,0.0299,0.0318,0.0308,0.0342,0.0343,0.0344,0.0349,0.035,0.0351,0,0,0,0,0,0.0181,0.0172,0.0183,0.0184,0.0185,0.0178,0.0179,0.02,0.0223,0.0225,0.025,0.0264,0.0304,0.0297,0.03,0.032,0.0342,0.0343,0.0344,0.0348,0.035,0.0351,0,0,0,0,0,0,0.0175,0.0175,0.0189,0.0182,0.0186,0.0187,0.019,0.0206,0.0225,0.024,0.0261,0.0268,0.0296,0.0302,0.0293,0.0334,0.0329,0.033,0.0331,0.0333,0.0334,0.033,0.0309,0,0,0,0,0,0.0174,0.0171,0.0174,0.0171,0.0173,0.0186,0.019,0.0204,0.0217,0.0229,0.025,0.0275,0.0296,0.031,0.0324,0.0338,0.0359,0.0356,0.0357,0.0358,0.0357,0.0412,0.0419,0.0348,0.0348,0.0348,0,0,0.0171,0.0172,0.0171,0.017,0.0177,0.0173,0.0193,0.02,0.0206,0.023,0.0253,0.0279,0.03,0.0322,0.0335,0.0333,0.0389,0.036,0.036,0.0358,0.0414,0.0421,0.0427,0.0348,0.0348,0.0348,0,0,0.0156,0.0166,0.0158,0.0159,0.0169,0.0173,0.0179,0.0191,0.0209,0.0223,0.0253,0.0288,0.0309,0.0334,0.0348,0.0362,0.0394,0.0376,0.0381,0.0435,0.0441,0.0447,0.0479,0.0488,0.0378,0.0378,0.0378,0,0.0158,0.0148,0.0155,0.0149,0.0152,0.0174,0.0171,0.018,0.0201,0.0222,0.0233,0.0296,0.0314,0.0354,0.0362,0.0367,0.0398,0.0373,0.0437,0.0444,0.045,0.0481,0.0491,0.0378,0.0378,0.0378,0.0378,0,0.0133,0.0134,0.0129,0.013,0.0132,0.0132,0.0146,0.0164,0.0193,0.0213,0.0264,0.0294,0.0338,0.0352,0.0359,0.0416,0.0424,0.0433,0.0434,0.0458,0.0488,0.0498,0.0379,0.0378,0.0378,0.0378,0,0,0.0124,0.0114,0.0117,0.0119,0.0127,0.0125,0.0139,0.0162,0.0189,0.0222,0.0265,0.0305,0.0344,0.0362,0.0392,0.0434,0.0499,0.0453,0.0455,0.0484,0.0614,0.0476,0.0474,0.053,0.0532,0.0533,0.0616,0,0.0111,0.0094,0.0095,0.009,0.0086,0.011,0.012,0.0148,0.0184,0.0229,0.0282,0.033,0.0342,0.038,0.0423,0.0488,0.0527,0.0475,0.0586,0.0588,0.0464,0.0481,0.0377,0.043,0.0626,0.0628,0.0629,0,0.0094,0.0084,0.0075,0.0081,0.0083,0.0087,0.0127,0.0139,0.0202,0.0235,0.0298,0.0346,0.042,0.0424,0.0541,0.0514,0.0561,0.06,0.0605,0.0479,0.0468,0.0439,0.0441,0.0646,0.0644,0.0643,0.0642,0,0.0088,0.0077,0.0072,0.0071,0.0076,0.0091,0.0105,0.0153,0.0177,0.0254,0.0291,0.0381,0.0439,0.0518,0.0594,0.0586,0.0713,0.0714,0.0629,0.0621,0.0551,0.0531,0.0789,0.0789,0.0789,0.0788,0.0788,0,0.0075,0.0073,0.0072,0.0068,0.0077,0.0087,0.0117,0.0146,0.0198,0.0236,0.0303,0.0357,0.047,0.0551,0.0613,0.0642,0.0734,0.0625,0.0632,0.0546,0.0525,0.0727,0.0719,0.0791,0.0791,0.079,0.079,0,0.0072,0.0068,0.0064,0.0069,0.0075,0.0086,0.0115,0.0139,0.0186,0.0241,0.0271,0.0366,0.0466,0.0554,0.0684,0.0648,0.0704,0.0693,0.0563,0.0548,0.0572,0.0563,0.0602,0.0598,0.0594,0.0591,0.0589,0,0.0069,0.0065,0.0068,0.0071,0.0077,0.0093,0.0108,0.014,0.0163,0.0244,0.0273,0.0376,0.042,0.052,0.0505,0.0546,0.0665,0.0463,0.0399,0.055,0.0554,0.055,0.0546,0.0332,0.0327,0.0324,0.0321,0,0.0063,0.0071,0.0066,0.0075,0.0087,0.0091,0.0113,0.0124,0.0168,0.0205,0.0266,0.03,0.0333,0.0312,0.0315,0.0327,0.0436,0.0381,0.0626,0.0357,0.0291,0.0295,0.0302,0.0289,0.0292,0.0294,0.0296,0.0297,0.007,0.007,0.0074,0.0085,0.009,0.0094,0.0103,0.0114,0.0138,0.0174,0.021,0.0214,0.0154,0.0084,0.0114,0.0143,0.0164,0.0169,0.0183,0.0201,0.0116,0.0044,-0.002,-0.0018,-0.0017,-0.0016,-0.0015,0,0.0086,0.0087,0.0086,0.009,0.0093,0.0104,0.0111,0.0109,0.0124,0.0114,0.0126,-0.001,-0.0065,-0.0014,-0.0073,-0.0132,-0.0094,-0.0076,-0.0003,0.0023,0.0048,-0.0038,-0.0217,-0.0217,-0.0216,-0.0216,0,0,0.0093,0.0099,0.0096,0.0098,0.0106,0.0116,0.0123,0.0105,0.0082,0.002,-0.0019,-0.0101,-0.0122,-0.0197,-0.0225,-0.0186,-0.0062,-0.0196,-0.0056,0.0053,0.008,0.0138,0.0024,0,0,0,0,0]},{"header":{"parameterUnit":"m.s-1","parameterCategory":2,"la1":30.2991,"la2":30.254,"lo1":-89.0895,"lo2":-89.0444,"dy":0.0017,"dx":0.0017,"nx":28,"ny":28,"refTime":"2025-02-02T09:00:00:Z","depth":"2","parameterNumber":3,"parameterNumberName":"V-component_of_CURRENTS"},"data":[0,0,0,0,0,0,0,0,0,0,0,0,0,0,0,0,0,0,0,0,0,0,0,0,0,0,0,0,0,0,0,0,0,0,0,0,0,0,0,0,0,0,0,0,0,0,0,0,0,0,0,0,0,0,0,0,0,0,-0.0002,-0.0002,0,-0.0007,-0.0007,-0.0007,-0.0035,-0.0035,-0.0036,-0.0037,-0.0074,-0.0074,-0.0075,0,0,0,0,0,0,0,0,0,0,0,0,0,0.0013,0.0013,-0.0002,-0.0002,-0.0002,-0.0007,-0.0007,-0.0007,-0.0035,-0.0035,-0.0036,-0.0037,-0.0074,-0.0074,-0.0075,0,0,0,0,0,0,0,0,0,0,0,0,0,0.0008,0.0013,-0.0002,-0.0017,-0.0019,-0.0007,-0.0007,-0.0007,-0.0034,-0.0035,-0.0037,-0.0038,-0.0074,-0.0074,-0.0075,-0.0055,0,0,-0.0076,-0.0076,0,0,0,0,0,0,0,0,0.0009,0.0008,-0.0015,-0.0016,-0.0018,-0.0023,-0.0016,-0.0025,-0.0034,-0.0027,-0.0037,-0.0038,-0.006,-0.0061,-0.0058,-0.0057,-0.0058,-0.0076,-0.0076,-0.0076,-0.0077,0,0,0,0,0,0,0,0.0009,0.0008,-0.0003,-0.0015,-0.0017,-0.0014,-0.0016,-0.0017,-0.0037,-0.0028,-0.003,-0.0032,-0.0061,-0.0057,-0.0059,-0.0059,-0.0076,-0.0076,-0.0077,-0.0077,-0.0072,-0.0071,0,0,0,0,0,0,0.0007,0.0008,-0.0003,-0.0003,-0.0008,-0.0014,-0.0016,-0.0019,-0.0036,-0.004,-0.0031,-0.0034,-0.0056,-0.0058,-0.006,-0.0055,-0.0076,-0.0077,-0.0077,-0.0072,-0.0071,-0.0071,0,0,0,0,0,0,0.0007,0.0006,-0.0002,0.0002,0.0,-0.0013,-0.0016,-0.0018,-0.0029,-0.0039,-0.0043,-0.0041,-0.0057,-0.006,-0.0067,-0.0056,-0.0077,-0.0077,-0.0072,-0.0072,-0.0071,-0.0034,0,0,0,0,0,0,0.0008,0.0006,0.0004,0.0001,0.0,0.0001,-0.0015,-0.0018,-0.0028,-0.0031,-0.0048,-0.0051,-0.0058,-0.0066,-0.0067,-0.0057,-0.0078,-0.0073,-0.0072,-0.0071,-0.0036,-0.0032,-0.0029,0,0,0,0,0,0.0009,0.001,0.0004,0.0002,-0.0003,0.0001,0.0001,-0.0012,-0.0027,-0.0026,-0.0039,-0.0052,-0.0062,-0.0066,-0.0067,-0.0058,-0.0073,-0.0072,-0.0071,-0.0037,-0.0033,-0.0029,0,0,0,0,0,0,0.0012,0.0007,0.0,-0.0002,-0.0002,-0.0004,-0.0005,-0.0015,-0.0023,-0.0032,-0.0045,-0.0049,-0.005,-0.006,-0.0063,-0.0054,-0.007,-0.0069,-0.0044,-0.004,-0.0036,-0.0022,-0.0078,0,0,0,0,0,0.0014,0.0012,0.0009,0.0007,0.0007,-0.0001,-0.0002,-0.0011,-0.0018,-0.0024,-0.0035,-0.0045,-0.0044,-0.0048,-0.0051,-0.0045,-0.0047,-0.0041,-0.0038,-0.0035,-0.0024,-0.0022,-0.0017,-0.0068,-0.0068,-0.0068,0,0,0.0013,0.0011,0.0009,0.0008,0.0006,0.0013,-0.0004,-0.0008,-0.0003,-0.0025,-0.0026,-0.0035,-0.004,-0.0032,-0.0034,-0.0042,-0.002,-0.0034,-0.0031,-0.0022,-0.002,-0.0015,-0.001,-0.0067,-0.0068,-0.0068,0,0,0.0019,0.0011,0.0015,0.0018,0.0014,0.0015,0.0012,0.0006,0.0002,0.0003,-0.0009,-0.001,-0.0018,-0.001,-0.0008,0.0012,-0.0003,0.0002,0.0032,0.0034,0.0039,0.0043,0.0051,0.0056,0.0004,0.0004,0.0004,0,0.0015,0.0022,0.0017,0.0025,0.0029,0.0016,0.0025,0.0028,0.0019,0.0025,0.0004,0.0011,0.0,0.0026,0.0031,0.0021,0.0017,0.0018,0.0039,0.0043,0.0046,0.0055,0.0059,0.0006,0.0006,0.0006,0.0005,0,0.003,0.0033,0.0037,0.0044,0.0051,0.0055,0.0059,0.0062,0.0052,0.0055,0.0067,0.0058,0.0063,0.0059,0.0051,0.0074,0.0062,0.0043,0.0031,0.0054,0.0061,0.0065,0.0009,0.0008,0.0007,0.0007,0,0,0.0023,0.0042,0.0041,0.0053,0.006,0.0069,0.0085,0.0104,0.012,0.0111,0.0135,0.0136,0.0126,0.0128,0.0116,0.0119,0.0137,0.0091,0.009,0.0104,0.0145,0.0188,0.0196,0.0115,0.0116,0.0117,0.0142,0,0.0032,0.0053,0.0062,0.0085,0.0098,0.0104,0.0126,0.0141,0.0148,0.0169,0.0169,0.0181,0.0154,0.0154,0.0155,0.0144,0.0148,0.0133,0.0117,0.0117,0.0157,0.0203,0.0132,0.0154,0.0145,0.0146,0.0147,0,0.0043,0.0057,0.0079,0.0114,0.012,0.0132,0.0168,0.0187,0.0217,0.0223,0.0237,0.0233,0.0251,0.0212,0.0215,0.0203,0.0179,0.0165,0.0165,0.0198,0.0169,0.0128,0.0161,0.0153,0.0152,0.0152,0.0151,0,0.0046,0.0073,0.0091,0.01,0.0133,0.0146,0.0164,0.0197,0.0224,0.0253,0.0274,0.0287,0.0294,0.0273,0.025,0.0227,0.025,0.0213,0.0234,0.0236,0.0172,0.0169,0.0212,0.0212,0.0212,0.0212,0.0212,0,0.0057,0.0073,0.009,0.01,0.013,0.0149,0.0186,0.0208,0.0248,0.0291,0.0295,0.0334,0.0306,0.0316,0.0279,0.0287,0.0273,0.0261,0.0254,0.0184,0.0182,0.0172,0.0167,0.0213,0.0212,0.0212,0.0212,0,0.006,0.0069,0.0093,0.012,0.0129,0.0147,0.0194,0.0231,0.0259,0.0315,0.0326,0.0372,0.0394,0.0374,0.0354,0.0337,0.0327,0.0323,0.0256,0.0243,0.0301,0.0298,0.036,0.0362,0.0363,0.0365,0.0366,0,0.0068,0.0077,0.0099,0.0114,0.0123,0.0153,0.0185,0.0225,0.0268,0.0346,0.0382,0.0425,0.0474,0.0487,0.0455,0.043,0.0381,0.0338,0.0293,0.0334,0.032,0.0314,0.0309,0.0212,0.0212,0.0212,0.0212,0,0.0087,0.0084,0.0102,0.0126,0.015,0.0192,0.0236,0.027,0.0331,0.0383,0.047,0.0517,0.0551,0.0513,0.0485,0.0454,0.0343,0.0339,0.039,0.0204,0.0202,0.0186,0.0184,0.021,0.0211,0.0211,0.0211,0.0211,0.0096,0.0111,0.0126,0.015,0.018,0.0229,0.026,0.0319,0.0388,0.0468,0.0522,0.0551,0.0462,0.0431,0.0412,0.0397,0.0415,0.032,0.0316,0.0314,0.031,0.0314,0.0342,0.0343,0.0344,0.0344,0.0345,0,0.0119,0.0132,0.0158,0.0189,0.0224,0.0229,0.03,0.0343,0.0414,0.0471,0.0541,0.0433,0.0388,0.033,0.0318,0.0321,0.0293,0.028,0.0192,0.0194,0.0195,0.0182,0.0181,0.0181,0.0181,0.0181,0,0,0.0135,0.016,0.0173,0.0222,0.0236,0.0277,0.0308,0.0376,0.0417,0.0478,0.0458,0.0427,0.0335,0.0234,0.0205,0.0209,0.0217,0.0212,0.0337,0.0237,0.0239,0.0204,0.0185,0,0,0,0,0]}],[{"header":{"parameterUnit":"m.s-1","parameterCategory":2,"la1":30.2991,"la2":30.254,"lo1":-89.0895,"lo2":-89.0444,"dy":0.0017,"dx":0.0017,"nx":28,"ny":28,"refTime":"2025-02-02T09:00:00:Z","depth":"4","parameterNumber":2,"parameterNumberName":"U-component_of_CURRENTS"},"data":[0,0,0,0,0,0,0,0,0,0,0,0,0,0,0,0,0,0,0,0,0,0,0,0,0,0,0,0,0,0,0,0,0,0,0,0,0,0,0,0,0,0,0,0,0,0,0,0,0,0,0,0,0,0,0,0,0,0,-0.0455,-0.0455,0,-0.0465,-0.0466,-0.0466,-0.0476,-0.0476,-0.0476,-0.0476,-0.0503,-0.0503,-0.0504,0,0,0,0,0,0,0,0,0,0,0,0,0,-0.0445,-0.0445,-0.0455,-0.0455,-0.0455,-0.0465,-0.0466,-0.0466,-0.0476,-0.0476,-0.0476,-0.0476,-0.0503,-0.0503,-0.0504,0,0,0,0,0,0,0,0,0,0,0,0,0,-0.0452,-0.0445,-0.0455,-0.0461,-0.0462,-0.0465,-0.0466,-0.0466,-0.0476,-0.0476,-0.0476,-0.0476,-0.0502,-0.0503,-0.0504,-0.0506,0,0,-0.0507,-0.0507,0,0,0,0,0,0,0,0,-0.0452,-0.0452,-0.046,-0.0461,-0.0461,-0.0469,-0.0472,-0.048,-0.0476,-0.0471,-0.0476,-0.0476,-0.0493,-0.0495,-0.0496,-0.0508,-0.0509,-0.0507,-0.0508,-0.0508,-0.0508,0,0,0,0,0,0,0,-0.0451,-0.0452,-0.0459,-0.046,-0.0461,-0.0464,-0.0465,-0.0474,-0.0481,-0.0471,-0.0472,-0.0473,-0.0493,-0.0495,-0.0497,-0.0509,-0.0507,-0.0508,-0.0508,-0.0509,-0.0557,-0.0558,0,0,0,0,0,0,-0.0449,-0.0452,-0.0459,-0.0459,-0.0457,-0.0464,-0.0466,-0.0467,-0.0481,-0.0483,-0.0472,-0.0473,-0.0494,-0.0496,-0.0498,-0.0524,-0.0508,-0.0509,-0.0509,-0.0556,-0.0557,-0.0558,0,0,0,0,0,0,-0.0449,-0.045,-0.0458,-0.0456,-0.0457,-0.0464,-0.0465,-0.0467,-0.0478,-0.0482,-0.0484,-0.0483,-0.0494,-0.0497,-0.0511,-0.0525,-0.0509,-0.051,-0.0555,-0.0556,-0.0558,-0.0563,0,0,0,0,0,0,-0.0449,-0.045,-0.0456,-0.0456,-0.0457,-0.0466,-0.0465,-0.0467,-0.0477,-0.0478,-0.0491,-0.0493,-0.0494,-0.051,-0.0512,-0.0526,-0.0511,-0.0554,-0.0556,-0.0557,-0.0562,-0.0564,-0.0566,0,0,0,0,0,-0.0448,-0.0455,-0.0456,-0.0457,-0.0463,-0.0466,-0.0468,-0.0473,-0.0478,-0.0484,-0.0491,-0.0493,-0.052,-0.0511,-0.0513,-0.0528,-0.0554,-0.0555,-0.0557,-0.0561,-0.0564,-0.0566,0,0,0,0,0,0,-0.0459,-0.0457,-0.0458,-0.0465,-0.0468,-0.0468,-0.0477,-0.0479,-0.049,-0.0494,-0.0498,-0.0501,-0.0522,-0.0524,-0.0513,-0.0547,-0.054,-0.0542,-0.0542,-0.0544,-0.0546,-0.0519,-0.0512,0,0,0,0,0,-0.0462,-0.0467,-0.0465,-0.0473,-0.0475,-0.0478,-0.0482,-0.0484,-0.049,-0.0496,-0.0505,-0.0518,-0.053,-0.0535,-0.0548,-0.0561,-0.0566,-0.0575,-0.0577,-0.0578,-0.0559,-0.058,-0.0582,-0.0563,-0.0563,-0.0563,0,0,-0.047,-0.047,-0.0474,-0.0476,-0.048,-0.0483,-0.0481,-0.049,-0.05,-0.0497,-0.052,-0.0528,-0.0536,-0.0554,-0.0563,-0.0556,-0.0592,-0.058,-0.0582,-0.0561,-0.0582,-0.0584,-0.0585,-0.0564,-0.0564,-0.0564,0,0,-0.0481,-0.0486,-0.049,-0.0492,-0.0496,-0.0497,-0.0501,-0.0506,-0.0518,-0.0532,-0.0538,-0.0549,-0.0569,-0.0575,-0.058,-0.0601,-0.0605,-0.0611,-0.0594,-0.0616,-0.0617,-0.0618,-0.0646,-0.0649,-0.0608,-0.0608,-0.0608,0,-0.0488,-0.0493,-0.0494,-0.0497,-0.0501,-0.0503,-0.0509,-0.0519,-0.0531,-0.054,-0.0544,-0.0568,-0.0579,-0.059,-0.059,-0.0606,-0.0614,-0.0583,-0.0617,-0.0618,-0.0619,-0.0647,-0.0651,-0.0608,-0.0608,-0.0608,-0.0608,0,-0.0497,-0.0504,-0.0509,-0.0511,-0.0518,-0.0524,-0.0532,-0.055,-0.0562,-0.0563,-0.0584,-0.0592,-0.0591,-0.0612,-0.06,-0.0612,-0.0616,-0.0621,-0.0607,-0.0621,-0.065,-0.0654,-0.0609,-0.0609,-0.0609,-0.0609,0,0,-0.05,-0.0511,-0.0514,-0.0519,-0.0526,-0.0531,-0.0555,-0.0568,-0.0577,-0.0592,-0.0602,-0.0615,-0.0594,-0.0596,-0.0594,-0.0609,-0.0631,-0.0603,-0.0604,-0.0623,-0.0677,-0.064,-0.0641,-0.0636,-0.0636,-0.0637,-0.0703,0,-0.0505,-0.0513,-0.052,-0.0535,-0.0537,-0.0553,-0.0571,-0.0584,-0.0595,-0.0606,-0.0614,-0.0605,-0.0595,-0.0577,-0.0593,-0.0622,-0.0636,-0.0612,-0.0666,-0.0667,-0.0626,-0.0642,-0.0637,-0.0705,-0.0706,-0.0707,-0.0707,0,-0.0505,-0.0511,-0.0523,-0.0542,-0.0546,-0.0559,-0.0584,-0.0587,-0.06,-0.0599,-0.0588,-0.0581,-0.0581,-0.0574,-0.062,-0.06,-0.062,-0.0653,-0.0656,-0.0613,-0.0636,-0.0684,-0.0714,-0.0713,-0.0713,-0.0712,-0.0712,0,-0.0496,-0.0513,-0.0526,-0.0531,-0.055,-0.0572,-0.0573,-0.0587,-0.0579,-0.0564,-0.0558,-0.0562,-0.0565,-0.0588,-0.0639,-0.0614,-0.0721,-0.0701,-0.0696,-0.0696,-0.0706,-0.0704,-0.0728,-0.0728,-0.0728,-0.0728,-0.0728,0,-0.0489,-0.0502,-0.0525,-0.0531,-0.0549,-0.0554,-0.0554,-0.0562,-0.0548,-0.0548,-0.0522,-0.0534,-0.0564,-0.0629,-0.0654,-0.0698,-0.0731,-0.0685,-0.0703,-0.0712,-0.0709,-0.0711,-0.0708,-0.0731,-0.073,-0.0729,-0.0729,0,-0.0476,-0.0491,-0.0504,-0.0532,-0.0543,-0.0542,-0.0529,-0.0518,-0.0503,-0.0507,-0.0489,-0.0517,-0.0572,-0.064,-0.0717,-0.0719,-0.0766,-0.0779,-0.0806,-0.0827,-0.0716,-0.0713,-0.0735,-0.0734,-0.0734,-0.0733,-0.0732,0,-0.047,-0.0474,-0.0501,-0.0506,-0.0522,-0.0513,-0.0508,-0.0488,-0.048,-0.051,-0.0526,-0.0567,-0.0596,-0.0673,-0.0737,-0.079,-0.0786,-0.0805,-0.0712,-0.0698,-0.0714,-0.0712,-0.071,-0.0731,-0.0731,-0.0731,-0.0731,0,-0.0455,-0.0467,-0.0477,-0.049,-0.0495,-0.0477,-0.048,-0.0455,-0.0455,-0.048,-0.0508,-0.0524,-0.0607,-0.0647,-0.0711,-0.0749,-0.0781,-0.0796,-0.0796,-0.0708,-0.0694,-0.071,-0.0709,-0.0728,-0.0728,-0.0729,-0.0729,0,-0.0444,-0.044,-0.0457,-0.0459,-0.0467,-0.0442,-0.0431,-0.0431,-0.0409,-0.0456,-0.0491,-0.0549,-0.0614,-0.0631,-0.0702,-0.0723,-0.068,-0.0647,-0.0653,-0.0657,-0.0602,-0.0571,-0.0575,0,0,0,0,0,-0.0425,-0.0413,-0.0422,-0.0414,-0.0423,-0.0428,-0.0426,-0.0414,-0.0443,-0.0445,-0.0449,-0.0513,-0.0553,-0.0586,-0.0587,-0.0669,-0.0694,-0.0669,-0.0661,-0.0713,-0.0716,-0.0659,0,0,0,0,0,0,-0.0408,-0.0417,-0.0408,-0.0383,-0.0372,-0.0369,-0.0356,-0.0375,-0.0365,-0.0411,-0.0426,-0.049,-0.0531,-0.0552,-0.0582,-0.0597,-0.0581,-0.0717,-0.0716,-0.0711,-0.0714,-0.0717,-0.0659,0,0,0,0,0]},{"header":{"parameterUnit":"m.s-1","parameterCategory":2,"la1":30.2991,"la2":30.254,"lo1":-89.0895,"lo2":-89.0444,"dy":0.0017,"dx":0.0017,"nx":28,"ny":28,"refTime":"2025-02-02T09:00:00:Z","depth":"4","parameterNumber":3,"parameterNumberName":"V-component_of_CURRENTS"},"data":[0,0,0,0,0,0,0,0,0,0,0,0,0,0,0,0,0,0,0,0,0,0,0,0,0,0,0,0,0,0,0,0,0,0,0,0,0,0,0,0,0,0,0,0,0,0,0,0,0,0,0,0,0,0,0,0,0,0,0.0339,0.0339,0,0.0368,0.0368,0.0369,0.0396,0.0397,0.0397,0.0397,0.0419,0.0419,0.0419,0,0,0,0,0,0,0,0,0,0,0,0,0,0.0309,0.031,0.0339,0.0339,0.0339,0.0368,0.0368,0.0369,0.0396,0.0397,0.0397,0.0397,0.0419,0.0419,0.0419,0,0,0,0,0,0,0,0,0,0,0,0,0,0.0329,0.031,0.0339,0.0356,0.0358,0.0368,0.0368,0.0369,0.0396,0.0397,0.0397,0.0398,0.0418,0.0419,0.0419,0.0412,0,0,0.042,0.0421,0,0,0,0,0,0,0,0,0.0328,0.033,0.0353,0.0355,0.0357,0.0379,0.0366,0.0383,0.0396,0.0382,0.0397,0.0398,0.0404,0.0405,0.0411,0.0413,0.0414,0.042,0.0421,0.0421,0.0421,0,0,0,0,0,0,0,0.0326,0.0329,0.0351,0.0354,0.0356,0.0363,0.0367,0.0369,0.039,0.0384,0.0386,0.0388,0.0405,0.041,0.0411,0.0414,0.042,0.0421,0.0421,0.0421,0.0453,0.0453,0,0,0,0,0,0,0.0321,0.0328,0.035,0.0352,0.0343,0.0364,0.0367,0.0372,0.039,0.0394,0.0387,0.0389,0.0409,0.0411,0.0412,0.0439,0.0421,0.0421,0.0422,0.0452,0.0453,0.0454,0,0,0,0,0,0,0.0321,0.0323,0.0349,0.034,0.0344,0.0363,0.0368,0.0372,0.0385,0.0393,0.0397,0.0398,0.041,0.0412,0.042,0.0438,0.0421,0.0422,0.0451,0.0452,0.0453,0.047,0,0,0,0,0,0,0.032,0.0323,0.0327,0.034,0.0344,0.0357,0.0368,0.0372,0.0385,0.0388,0.0403,0.0405,0.041,0.0419,0.0421,0.0439,0.0422,0.0451,0.0452,0.0453,0.0468,0.0471,0.0473,0,0,0,0,0,0.0319,0.0322,0.0327,0.033,0.0348,0.0357,0.036,0.0376,0.0385,0.039,0.0401,0.0405,0.0428,0.042,0.0421,0.044,0.045,0.0452,0.0453,0.0467,0.0471,0.0473,0,0,0,0,0,0,0.0312,0.0325,0.0331,0.0339,0.0348,0.0361,0.0368,0.0378,0.0391,0.0396,0.0405,0.0408,0.0427,0.0427,0.0418,0.0453,0.0443,0.0444,0.0453,0.0456,0.0459,0.0422,0.0422,0,0,0,0,0,0.0312,0.0318,0.033,0.0336,0.0341,0.0355,0.0362,0.0372,0.0383,0.039,0.0404,0.0418,0.0432,0.0438,0.0449,0.0459,0.0445,0.0474,0.0477,0.0479,0.0451,0.0439,0.0437,0.0458,0.0458,0.0458,0,0,0.031,0.0319,0.0322,0.0335,0.0344,0.0348,0.0361,0.0372,0.0382,0.0389,0.0411,0.0427,0.0437,0.0456,0.0465,0.0458,0.0474,0.0481,0.0482,0.0452,0.044,0.0437,0.0435,0.0459,0.0459,0.0458,0,0,0.0306,0.0319,0.0321,0.0327,0.034,0.0348,0.0351,0.037,0.0388,0.0409,0.0419,0.0437,0.0466,0.047,0.0477,0.0495,0.0489,0.0512,0.0491,0.0482,0.0479,0.0476,0.0487,0.0485,0.0511,0.0511,0.0511,0,0.0301,0.0309,0.0322,0.0325,0.0329,0.0347,0.0347,0.0365,0.0387,0.0399,0.0421,0.0452,0.0471,0.0472,0.0484,0.05,0.0493,0.0482,0.0483,0.048,0.0477,0.0488,0.0485,0.0512,0.0512,0.0512,0.0511,0,0.0298,0.0304,0.0306,0.0314,0.032,0.0325,0.0344,0.0367,0.0398,0.0411,0.0435,0.0456,0.0463,0.0491,0.0495,0.0485,0.0489,0.049,0.0471,0.0475,0.0488,0.0485,0.0513,0.0513,0.0512,0.0512,0,0,0.0284,0.03,0.0301,0.0301,0.0316,0.0317,0.0343,0.0361,0.0366,0.0408,0.0408,0.0451,0.0448,0.0452,0.0461,0.0456,0.0457,0.0458,0.0458,0.0461,0.0442,0.0407,0.0401,0.0453,0.0452,0.0451,0.047,0,0.0276,0.0278,0.0289,0.0287,0.0286,0.0312,0.0329,0.0349,0.0371,0.0377,0.0405,0.0407,0.0436,0.0434,0.0433,0.0439,0.0444,0.0452,0.0442,0.0442,0.0403,0.0394,0.0448,0.0468,0.0467,0.0467,0.0466,0,0.0266,0.027,0.0271,0.0275,0.0277,0.0293,0.0311,0.0323,0.0339,0.0351,0.035,0.035,0.0344,0.0371,0.0376,0.0375,0.0401,0.0419,0.042,0.0366,0.0399,0.0456,0.0461,0.0461,0.0462,0.0462,0.0463,0,0.0248,0.0251,0.0254,0.0255,0.0269,0.0297,0.0317,0.0334,0.0331,0.0323,0.0302,0.0298,0.0288,0.0307,0.0345,0.0352,0.0354,0.0374,0.0374,0.0374,0.0394,0.0396,0.0376,0.0376,0.0376,0.0376,0.0376,0,0.0232,0.023,0.0258,0.0261,0.0275,0.0292,0.0303,0.032,0.0311,0.0266,0.0277,0.0219,0.0265,0.0269,0.0316,0.0328,0.0336,0.035,0.0361,0.0407,0.041,0.0394,0.0396,0.0377,0.0377,0.0377,0.0377,0,0.0213,0.0226,0.0223,0.0252,0.0272,0.0286,0.0312,0.0298,0.0294,0.0229,0.0216,0.0168,0.0144,0.0209,0.024,0.0281,0.0313,0.0327,0.038,0.0397,0.035,0.0353,0.0306,0.0304,0.0303,0.0302,0.0301,0,0.0202,0.0202,0.0224,0.0232,0.026,0.0288,0.0301,0.0308,0.026,0.0172,0.0112,0.0078,0.0051,0.0078,0.0146,0.0242,0.0263,0.0307,0.0311,0.032,0.0336,0.0341,0.0345,0.0299,0.0299,0.0299,0.0298,0,0.0176,0.0188,0.0187,0.0213,0.0235,0.0226,0.0232,0.0183,0.0135,0.0135,0.0005,-0.0,-0.0031,0.0011,0.0104,0.017,0.0286,0.0295,0.0298,0.0302,0.0312,0.033,0.0336,0.0294,0.0295,0.0295,0.0295,0,0.0155,0.0146,0.0155,0.0174,0.0193,0.015,0.0152,0.0089,0.0051,-0.0044,-0.0092,-0.0108,-0.0096,-0.0031,0.0036,0.0112,0.0124,0.0174,0.0183,0.0189,0.0151,0.0147,0.0066,0,0,0,0,0,0.0133,0.0118,0.0119,0.0107,0.0122,0.0141,0.0091,0.0068,0.0012,-0.0082,-0.0085,-0.0118,-0.0078,-0.0075,-0.0012,0.0012,0.0145,0.009,0.021,0.0271,0.0276,0.0247,0,0,0,0,0,0,0.0109,0.0105,0.0098,0.0064,0.0062,0.0047,0.002,-0.0029,-0.009,-0.0126,-0.0111,-0.0075,-0.0034,-0.0097,0.0002,0.0019,0.0107,0.0125,0.0126,0.0268,0.0273,0.0277,0.0248,0,0,0,0,0]}]]